Regional Weather Roundup
Issued by NWS

Home | Current Version | Previous Version | Text Only | Print | Product List | Glossary On
Versions: 1 2 3 4 5 6 7 8 9 10 11 12 13 14 15 16 17 18 19 20 21 22 23 24 25 26 27 28 29 30 31 32 33 34 35 36 37 38 39 40 41 42 43 44 45 46 47 48 49 50
000
ASUS43 KTOP 181108
RWRKS

WEATHER ROUNDUP FOR KANSAS
NATIONAL WEATHER SERVICE GOODLAND KS
600 AM CDT WED OCT 18 2017

NOTE:  "FAIR" INDICATES FEW OR NO CLOUDS BELOW 12,000 FEET WITH NO
SIGNIFICANT WEATHER AND/OR OBSTRUCTIONS TO VISIBILITY.

KSZ001>006-013>018-027>032-041>047-181200-
NORTHWEST KANSAS

CITY           SKY/WX    TMP DP  RH WIND       PRES   REMARKS
GOODLAND       CLOUDY    50  35  56 W10       29.96S
HAYS           CLEAR     44  40  85 CALM      29.96R
HILL CITY      CLOUDY    46  41  82 CALM      29.93F
RUSSELL        CLEAR     47  44  90 S12       29.94R
$$

KSZ061>065-074>080-084>089-181200-
SOUTHWEST KANSAS

CITY           SKY/WX    TMP DP  RH WIND       PRES   REMARKS
DODGE CITY     CLOUDY    46  39  76 S9        29.97R
ELKHART          N/A     47  36  66 W8          N/A
GARDEN CITY    CLOUDY    40  36  86 W6        29.96S
GREAT BEND     CLEAR     46  42  86 S5        29.97R
LIBERAL        CLOUDY    43  38  82 SW8       29.99S
PRATT          PTCLDY    49  42  77 S9        29.97S
$$

KSZ066>073-081>083-090>101-181200-
SOUTHEAST KANSAS

CITY           SKY/WX    TMP DP  RH WIND       PRES   REMARKS
CHANUTE        CLEAR     48  43  82 SE7       30.09S
COFFEYVILLE    CLEAR     48  44  86 S7        30.10S
HUTCHINSON     CLEAR     50  46  86 S10       29.98S
MEDICINE LODGE   N/A     49  43  80 MISG      29.99R
NEWTON         CLEAR     51  43  74 S13       30.01S
PARSONS        CLEAR     51  44  77 S5        30.10S
WICHITA INTL   CLEAR     52  45  77 S10       30.01S
WICHITA JABRA  CLEAR     51  45  79 S13       30.01S
WICHITA MCCONL CLEAR     52  42  71 S9        30.02R
WINFIELD       CLEAR     51  45  79 S9        30.05S
$$

KSZ007>012-019>026-033>040-048>060-102>105-181200-
NORTHEAST KANSAS

CITY           SKY/WX    TMP DP  RH WIND       PRES   REMARKS
CONCORDIA      CLEAR     52  45  77 S16       29.95S
EMPORIA        CLEAR     49  43  80 S13       30.03S
LAWRENCE       CLEAR     50  45  83 SE7       30.05S
MANHATTAN      CLEAR     50  44  80 SE3       30.00R
MARYSVILLE     CLEAR     50  45  81 S8        29.98R
OLATHE IND     CLEAR     49  45  86 S9        30.07S
OLATHE EXE     CLEAR     49  44  83 S8        30.07S
SALINA         CLEAR     54  46  74 S9        29.97S
TOPEKA BILLARD CLEAR     55  46  71 S12G20    30.02S
TOPEKA FORBES  CLEAR     54  46  74 S12       30.03S
$$




USA.gov is the U.S. government's official web portal to all federal, state and local government web resources and services.